Weather Roundup
Issued by NWS Corpus Christi, TX

Home | Current Version | Previous Version | Text Only | Print | Product List | Glossary On
Versions: 1 2 3 4 5 6 7 8 9 10 11 12 13 14 15 16 17 18 19 20 21 22 23 24 25 26 27 28 29 30 31 32 33 34 35 36 37 38 39 40 41 42 43 44 45 46 47 48 49 50
000
ASUS44 KCRP 210510
HRRCRP

SOUTH TEXAS REGIONAL WEATHER ROUNDUP
NATIONAL WEATHER SERVICE CORPUS CHRISTI TX
1200 AM CDT TUE APR 21 2015


TXZ229>244-210600-
...CORPUS CHRISTI AREA OBSERVATIONS...

CITY           SKY/WX    TMP DP  RH WIND       PRES   REMARKS
CORPUS CHRISTI CLOUDY    66  54  65 NE7       29.98S
NAS CORPUS CHR CLOUDY    67  32  27 NE8       29.99R
ROCKPORT       CLOUDY    67  54  63 E6        29.98F
KINGSVILLE NAS CLOUDY    63  59  87 CALM      30.00R
ALICE          CLOUDY    62  58  86 CALM      29.99F
FALFURRIAS     CLOUDY    63  56  77 E5        29.98F
$$

...VICTORIA AREA OBSERVATIONS...

CITY           SKY/WX    TMP DP  RH WIND       PRES   REMARKS
VICTORIA       CLOUDY    63  58  83 N5        29.98F
BEEVILLE       FAIR      61  60  98 CALM      29.98S
PLEASANTON     CLOUDY    60  53  76 CALM      30.01R
SAN ANTONIO    CLOUDY    62  50  64 CALM      29.99S
$$

...LAREDO AREA OBSERVATIONS...

CITY           SKY/WX    TMP DP  RH WIND       PRES   REMARKS
LAREDO         CLOUDY    65  54  67 SE7       30.04R
COTULLA        CLOUDY    64  51  62 SW5       30.01S
DEL RIO        CLOUDY    65  44  46 SE9       29.96F
MCALLEN        CLOUDY    71  55  56 NE7       29.99F
HEBBRONVILLE     N/A     62  54  73 CALM      30.02F
$$

...OTHER TEXAS OBSERVATIONS...

CITY           SKY/WX    TMP DP  RH WIND       PRES   REMARKS
BROWNSVILLE    LGT RAIN  68  65  90 NE8       29.97F
HOUSTON        CLOUDY    61  56  83 CALM      30.00S
COL. STATION   CLOUDY    64  51  62 N5        30.01F
AUSTIN         CLOUDY    56  52  86 CALM      30.01R
WACO           MOCLDY    53  48  83 CALM      30.01F
FORT WORTH     PTCLDY    58  42  55 SE5       30.01R
WICHITA FALLS  CLEAR     52  40  63 SE7       30.00R
LUBBOCK        PTCLDY    54  38  54 S13       29.93F
EL PASO        PTCLDY    68  24  19 S7        29.88S
$$

...MARINE OBSERVATIONS...

STATION/POSITION TIME  SKY/WX   TEMP    WIND        PRES    VSBY  WAVE   SWELL
                                AIR SEA DIR/SP/G                  HT/PER HT/PER
                 (UTC)          (F)     (DEG/KT/KT) (MB)    (MI)  (FT/S) (FT/S)
PORT ARANSAS     0500            68 72  360/  6/  7 1016.1R
BUOY 90 E PORT A 0450            71 74   70/ 12/ 14 1015.1R         3/ 5   2/ 7
BUOY 45 SE BAFFI 0450            71 74   80/ 10/ 12 1015.3R         5/ 7   3/ 7
BUOY 200 E PT IS 0450            78 77  100/ 14/ 17 1013.0F         5/ 7   2/ 7
BUOY 15 E GALVES 0450            70 72   40/ 10/ 12 1014.9F         2/ 7   2/ 7
$$



USA.gov is the U.S. government's official web portal to all federal, state and local government web resources and services.